AUA683 LOWW-EFHK

Flight info

Callsign AUA683
Flight time 2h 25m
Altitude 33000
Route LEDVA DCT KATQA DCT UPLAV DCT BAVOK DCT UVROB DCT ASBIM DCT BOKSU DCT INBOV DCT GUNTA DCT SOKVA DCT KEMET Q11 INTOR
Aircraft MD82/M-SDFGIJ1RWY/S

Departure

Time 2026-04-24 12:39
Airport Vienna International Airport (LOWW)

Arrival

Time 2026-04-24 15:04
Airport Helsinki Vantaa Airport (EFHK)
Time Latitude Longitude Altitude Speed Heading
2026-04-24 12:11 48.11778 16.56598 609 ft 0 kts 25°
2026-04-24 12:28 48.11763 16.56587 621 ft 3 kts 25°
2026-04-24 12:28 48.11744 16.56574 624 ft 3 kts 25°
2026-04-24 12:28 48.11726 16.56561 617 ft 3 kts 38°
2026-04-24 12:29 48.11714 16.56537 624 ft 3 kts 82°
2026-04-24 12:29 48.11713 16.56523 622 ft 0 kts 102°
2026-04-24 12:30 48.11710 16.56535 624 ft 4 kts 114°
2026-04-24 12:30 48.11688 16.56592 620 ft 7 kts 120°
2026-04-24 12:30 48.11661 16.56668 616 ft 10 kts 117°
2026-04-24 12:31 48.11632 16.56756 618 ft 10 kts 114°
2026-04-24 12:31 48.11609 16.56831 612 ft 8 kts 115°
2026-04-24 12:31 48.11580 16.56923 617 ft 12 kts 115°
2026-04-24 12:31 48.11530 16.57074 613 ft 21 kts 117°
2026-04-24 12:32 48.11487 16.57201 610 ft 7 kts 116°
2026-04-24 12:32 48.11461 16.57284 616 ft 9 kts 115°
2026-04-24 12:32 48.11427 16.57368 615 ft 12 kts 141°
2026-04-24 12:32 48.11380 16.57377 613 ft 9 kts 193°
2026-04-24 12:33 48.11317 16.57336 615 ft 8 kts 207°
2026-04-24 12:33 48.11254 16.57293 609 ft 12 kts 192°
2026-04-24 12:33 48.11191 16.57339 614 ft 10 kts 124°
2026-04-24 12:33 48.11156 16.57440 622 ft 9 kts 115°
2026-04-24 12:34 48.11131 16.57521 620 ft 11 kts 115°
2026-04-24 12:34 48.11097 16.57616 620 ft 12 kts 130°
2026-04-24 12:34 48.11031 16.57638 609 ft 7 kts 197°
2026-04-24 12:34 48.10965 16.57594 619 ft 10 kts 207°
2026-04-24 12:35 48.10925 16.57516 617 ft 8 kts 274°
2026-04-24 12:35 48.10935 16.57472 617 ft 0 kts 297°
2026-04-24 12:37 48.10935 16.57471 617 ft 1 kts 297°
2026-04-24 12:37 48.10973 16.57355 618 ft 33 kts 295°
2026-04-24 12:37 48.11152 16.56798 620 ft 87 kts 296°
2026-04-24 12:38 48.11495 16.55755 613 ft 134 kts 295°
2026-04-24 12:38 48.11953 16.54368 682 ft 167 kts 296°
2026-04-24 12:38 48.12455 16.52701 1047 ft 186 kts 292°
2026-04-24 12:39 48.12719 16.46803 2493 ft 180 kts 254°
2026-04-24 12:39 48.12360 16.44792 1647 ft 211 kts 263°
2026-04-24 12:39 48.12101 16.42643 1508 ft 212 kts 264°
2026-04-24 12:40 48.11847 16.40417 1144 ft 219 kts 265°
2026-04-24 12:40 48.11748 16.38220 1371 ft 211 kts 272°
2026-04-24 12:40 48.11756 16.35957 1930 ft 218 kts 272°
2026-04-24 12:40 48.11727 16.33814 2848 ft 203 kts 274°
2026-04-24 12:41 48.11994 16.31795 3808 ft 194 kts 294°
2026-04-24 12:41 48.12791 16.30286 4806 ft 181 kts 323°
2026-04-24 12:41 48.13728 16.29156 5758 ft 166 kts 303°
2026-04-24 12:41 48.14008 16.27436 6262 ft 180 kts 274°
2026-04-24 12:42 48.14023 16.25678 7092 ft 164 kts 278°
2026-04-24 12:42 48.14146 16.23850 7280 ft 188 kts 281°
2026-04-24 12:42 48.14277 16.22032 8210 ft 162 kts 280°
2026-04-24 12:42 48.14531 16.20343 8452 ft 181 kts 302°
2026-04-24 12:43 48.15508 16.19080 8722 ft 184 kts 337°
2026-04-24 12:43 48.16534 16.18460 9984 ft 147 kts 335°
2026-04-24 12:43 48.17544 16.17762 10017 ft 171 kts 334°
2026-04-24 12:43 48.18474 16.17118 10847 ft 132 kts 335°
2026-04-24 12:44 48.19466 16.16450 10318 ft 193 kts 336°
2026-04-24 12:44 48.20809 16.15556 10493 ft 204 kts 336°
2026-04-24 12:44 48.22008 16.14769 11553 ft 182 kts 340°
2026-04-24 12:44 48.23297 16.14446 11824 ft 196 kts
2026-04-24 12:45 48.24618 16.14997 12235 ft 205 kts 25°
2026-04-24 12:45 48.25883 16.16326 12231 ft 237 kts 37°
2026-04-24 12:45 48.27183 16.18025 12392 ft 257 kts 38°
2026-04-24 12:45 48.28565 16.19883 12595 ft 276 kts 39°
2026-04-24 12:46 48.30023 16.21886 12817 ft 293 kts 39°
2026-04-24 12:46 48.31561 16.24018 13039 ft 309 kts 39°
2026-04-24 12:46 48.33186 16.26248 13251 ft 324 kts 39°
2026-04-24 12:46 48.34900 16.28575 13424 ft 340 kts 39°
2026-04-24 12:47 48.36701 16.30991 13633 ft 354 kts 39°
2026-04-24 12:47 48.38568 16.33472 14064 ft 361 kts 39°
2026-04-24 12:47 48.40459 16.35967 14628 ft 362 kts 39°
2026-04-24 12:47 48.42360 16.38465 15149 ft 365 kts 38°
2026-04-24 12:48 48.44281 16.40987 15666 ft 368 kts 39°
2026-04-24 12:48 48.46218 16.43529 16226 ft 370 kts 39°
2026-04-24 12:48 48.48139 16.46052 16735 ft 373 kts 39°
2026-04-24 12:48 48.50106 16.48639 17212 ft 377 kts 39°
2026-04-24 12:49 48.52085 16.51251 17735 ft 379 kts 39°
2026-04-24 12:49 48.54081 16.53887 18215 ft 383 kts 39°
2026-04-24 12:49 48.56089 16.56546 18664 ft 386 kts 39°
2026-04-24 12:49 48.58110 16.59239 19057 ft 389 kts 39°
2026-04-24 12:50 48.60142 16.61957 19478 ft 391 kts 39°
2026-04-24 12:50 48.62182 16.64684 19902 ft 393 kts 39°
2026-04-24 12:50 48.64240 16.67430 20304 ft 396 kts 39°
2026-04-24 12:50 48.66311 16.70194 20690 ft 398 kts 39°
2026-04-24 12:51 48.68401 16.72979 21068 ft 401 kts 39°
2026-04-24 12:51 48.70502 16.75780 21477 ft 403 kts 39°
2026-04-24 12:51 48.72615 16.78601 21889 ft 406 kts 40°
2026-04-24 12:51 48.74669 16.81560 22293 ft 409 kts 43°
2026-04-24 12:52 48.76662 16.84654 22693 ft 411 kts 43°
2026-04-24 12:52 48.78644 16.87798 23069 ft 414 kts 44°
2026-04-24 12:52 48.80642 16.90966 23421 ft 417 kts 44°
2026-04-24 12:52 48.82664 16.94155 23752 ft 419 kts 43°
2026-04-24 12:53 48.84696 16.97335 24118 ft 420 kts 43°
2026-04-24 12:53 48.86737 17.00513 24470 ft 420 kts 43°
2026-04-24 12:53 48.88787 17.03693 24806 ft 422 kts 43°
2026-04-24 12:53 48.90846 17.06881 25115 ft 424 kts 43°
2026-04-24 12:54 48.92911 17.10080 25453 ft 425 kts 43°
2026-04-24 12:54 48.94981 17.13298 25783 ft 427 kts 43°
2026-04-24 12:54 48.97061 17.16532 26083 ft 428 kts 43°
2026-04-24 12:54 48.99148 17.19778 26395 ft 429 kts 43°
2026-04-24 12:55 49.01211 17.22988 26704 ft 430 kts 41°
2026-04-24 12:55 49.03515 17.25871 26965 ft 428 kts 31°
2026-04-24 12:55 49.06028 17.28308 27262 ft 428 kts 28°
2026-04-24 12:55 49.08587 17.30631 27592 ft 429 kts 28°
2026-04-24 12:56 49.11165 17.32953 27856 ft 431 kts 28°
2026-04-24 12:56 49.13748 17.35300 28095 ft 432 kts 28°
2026-04-24 12:56 49.16329 17.37676 28336 ft 433 kts 28°
2026-04-24 12:56 49.18903 17.40077 28571 ft 434 kts 29°
2026-04-24 12:57 49.21474 17.42503 28822 ft 435 kts 29°
2026-04-24 12:57 49.24049 17.44950 29065 ft 436 kts 29°
2026-04-24 12:57 49.26625 17.47406 29304 ft 437 kts 29°
2026-04-24 12:57 49.29210 17.49873 29563 ft 439 kts 29°
2026-04-24 12:58 49.31802 17.52347 29829 ft 440 kts 29°
2026-04-24 12:58 49.34400 17.54846 30080 ft 441 kts 29°
2026-04-24 12:58 49.37000 17.57370 30299 ft 443 kts 30°
2026-04-24 12:58 49.39604 17.59905 30522 ft 444 kts 30°
2026-04-24 12:59 49.42215 17.62447 30745 ft 444 kts 29°
2026-04-24 12:59 49.44827 17.64987 30968 ft 445 kts 29°
2026-04-24 12:59 49.47449 17.67535 31194 ft 446 kts 29°
2026-04-24 12:59 49.50073 17.70085 31422 ft 446 kts 29°
2026-04-24 13:00 49.52702 17.72643 31662 ft 447 kts 29°
2026-04-24 13:00 49.55331 17.75210 31892 ft 448 kts 28°
2026-04-24 13:00 49.57934 17.77743 32122 ft 448 kts 28°
2026-04-24 13:00 49.60567 17.80310 32362 ft 448 kts 28°
2026-04-24 13:01 49.63202 17.82882 32610 ft 448 kts 28°
2026-04-24 13:01 49.65837 17.85456 32833 ft 449 kts 28°
2026-04-24 13:01 49.68482 17.88046 32939 ft 452 kts 29°
2026-04-24 13:02 49.73810 17.93305 33014 ft 455 kts 29°
2026-04-24 13:02 49.79140 17.98579 33020 ft 454 kts 29°
2026-04-24 13:03 49.84461 18.03833 33023 ft 453 kts 29°
2026-04-24 13:03 49.89776 18.09088 33021 ft 453 kts 29°
2026-04-24 13:04 49.95055 18.14323 33012 ft 454 kts 28°
2026-04-24 13:04 50.00383 18.19616 33010 ft 454 kts 29°
2026-04-24 13:05 50.05660 18.25056 33011 ft 455 kts 30°
2026-04-24 13:05 50.10907 18.30558 33011 ft 455 kts 30°
2026-04-24 13:06 50.16175 18.36047 33011 ft 456 kts 29°
2026-04-24 13:06 50.21466 18.41533 33013 ft 456 kts 29°
2026-04-24 13:07 50.26749 18.47022 33010 ft 456 kts 30°
2026-04-24 13:07 50.32012 18.52513 33025 ft 447 kts 30°
2026-04-24 13:07 50.34535 18.55169 33000 ft 427 kts 29°
2026-04-24 13:08 50.36947 18.57718 32991 ft 409 kts 29°
2026-04-24 13:08 50.39226 18.60130 32981 ft 392 kts 29°
2026-04-24 13:08 50.41455 18.62486 32988 ft 382 kts 28°
2026-04-24 13:09 50.48033 18.69385 33021 ft 380 kts 28°
2026-04-24 13:09 50.52457 18.74028 33039 ft 384 kts 28°
2026-04-24 13:10 50.56896 18.78729 33015 ft 385 kts 28°
2026-04-24 13:10 50.61332 18.83434 33004 ft 385 kts 28°
2026-04-24 13:11 50.65770 18.88147 33014 ft 385 kts 28°
2026-04-24 13:11 50.70206 18.92868 33015 ft 384 kts 28°
2026-04-24 13:12 50.74630 18.97619 33020 ft 385 kts 28°
2026-04-24 13:12 50.79063 19.02392 33007 ft 385 kts 28°
2026-04-24 13:13 50.83500 19.07152 33002 ft 385 kts 28°
2026-04-24 13:13 50.87904 19.11882 33006 ft 385 kts 28°
2026-04-24 13:14 50.92337 19.16653 33007 ft 385 kts 28°
2026-04-24 13:14 50.96761 19.21437 33004 ft 384 kts 28°
2026-04-24 13:15 51.01174 19.26211 32994 ft 383 kts 28°
2026-04-24 13:15 51.05579 19.30983 32993 ft 384 kts 28°
2026-04-24 13:16 51.09240 19.34983 32987 ft 384 kts 28°
2026-04-24 13:16 51.13649 19.39809 32992 ft 384 kts 28°
2026-04-24 13:17 51.18059 19.44640 32982 ft 385 kts 28°
2026-04-24 13:17 51.22473 19.49468 32975 ft 384 kts 27°
2026-04-24 13:18 51.26877 19.54290 32981 ft 384 kts 27°
2026-04-24 13:18 51.31284 19.59130 32975 ft 384 kts 28°
2026-04-24 13:19 51.35691 19.63984 32994 ft 385 kts 27°
2026-04-24 13:19 51.40098 19.68859 32976 ft 385 kts 27°
2026-04-24 13:20 51.44499 19.73762 32972 ft 385 kts 27°
2026-04-24 13:20 51.48897 19.78661 32963 ft 385 kts 28°
2026-04-24 13:21 51.53291 19.83553 32966 ft 385 kts 27°
2026-04-24 13:21 51.57664 19.88428 32969 ft 386 kts 27°
2026-04-24 13:22 51.62056 19.93334 32964 ft 387 kts 27°
2026-04-24 13:22 51.66478 19.98282 32960 ft 387 kts 27°
2026-04-24 13:23 51.70889 20.03231 32955 ft 386 kts 27°
2026-04-24 13:23 51.75299 20.08202 32955 ft 387 kts 28°
2026-04-24 13:24 51.79699 20.13203 32953 ft 387 kts 28°
2026-04-24 13:24 51.84099 20.18197 32952 ft 386 kts 27°
2026-04-24 13:25 51.88503 20.23193 32949 ft 387 kts 27°
2026-04-24 13:25 51.92910 20.28197 32947 ft 387 kts 27°
2026-04-24 13:26 51.97314 20.33211 32967 ft 387 kts 27°
2026-04-24 13:26 52.01704 20.38224 32949 ft 389 kts 27°
2026-04-24 13:27 52.06132 20.43287 32943 ft 389 kts 27°
2026-04-24 13:27 52.10545 20.48371 32941 ft 388 kts 28°
2026-04-24 13:28 52.14945 20.53467 32940 ft 388 kts 28°
2026-04-24 13:28 52.19355 20.58566 32960 ft 389 kts 27°
2026-04-24 13:29 52.23779 20.63679 32948 ft 390 kts 27°
2026-04-24 13:29 52.28204 20.68805 32946 ft 390 kts 28°
2026-04-24 13:30 52.32624 20.73935 32956 ft 389 kts 28°
2026-04-24 13:30 52.37034 20.79068 32946 ft 388 kts 28°
2026-04-24 13:31 52.41428 20.84196 32964 ft 388 kts 27°
2026-04-24 13:31 52.45853 20.89317 32956 ft 390 kts 27°
2026-04-24 13:32 52.50251 20.94421 32951 ft 390 kts 27°
2026-04-24 13:32 52.54669 20.99586 32942 ft 390 kts 27°
2026-04-24 13:33 52.59063 21.04840 32939 ft 391 kts 29°
2026-04-24 13:33 52.63397 21.10294 32948 ft 392 kts 29°
2026-04-24 13:34 52.67773 21.15663 32941 ft 392 kts 28°
2026-04-24 13:34 52.72176 21.20948 32941 ft 391 kts 28°
2026-04-24 13:35 52.76586 21.26222 32933 ft 391 kts 27°
2026-04-24 13:35 52.80989 21.31510 32933 ft 391 kts 28°
2026-04-24 13:36 52.85391 21.36829 32939 ft 393 kts 28°
2026-04-24 13:36 52.89799 21.42170 32934 ft 392 kts 28°
2026-04-24 13:37 52.94197 21.47534 32929 ft 393 kts 28°
2026-04-24 13:37 52.98596 21.52937 32929 ft 393 kts 28°
2026-04-24 13:38 53.02967 21.58295 32962 ft 393 kts 28°
2026-04-24 13:38 53.07376 21.63700 32932 ft 394 kts 28°
2026-04-24 13:39 53.11791 21.69116 32923 ft 394 kts 27°
2026-04-24 13:39 53.16209 21.74537 32924 ft 393 kts 27°
2026-04-24 13:40 53.20706 21.79672 32920 ft 391 kts 25°
2026-04-24 13:40 53.25249 21.84654 32944 ft 391 kts 25°
2026-04-24 13:41 53.29810 21.89671 32921 ft 393 kts 25°
2026-04-24 13:41 53.34361 21.94744 32918 ft 393 kts 25°
2026-04-24 13:42 53.38902 21.99844 32910 ft 393 kts 25°
2026-04-24 13:42 53.43410 22.04918 32915 ft 393 kts 25°
2026-04-24 13:43 53.47951 22.10031 32935 ft 394 kts 26°
2026-04-24 13:43 53.52506 22.15173 32919 ft 395 kts 26°
2026-04-24 13:44 53.57049 22.20364 32913 ft 395 kts 26°
2026-04-24 13:44 53.61592 22.25554 32909 ft 394 kts 26°
2026-04-24 13:45 53.66135 22.30734 32907 ft 394 kts 26°
2026-04-24 13:45 53.70680 22.35910 32916 ft 395 kts 26°
2026-04-24 13:46 53.75235 22.41117 32907 ft 395 kts 26°
2026-04-24 13:46 53.79781 22.46342 32902 ft 395 kts 27°
2026-04-24 13:47 53.84329 22.51577 32901 ft 395 kts 26°
2026-04-24 13:47 53.88875 22.56845 32892 ft 396 kts 27°
2026-04-24 13:48 53.93410 22.62124 32897 ft 395 kts 27°
2026-04-24 13:48 53.97909 22.67360 32887 ft 394 kts 27°
2026-04-24 13:49 54.02431 22.72625 32887 ft 394 kts 27°
2026-04-24 13:49 54.06953 22.77897 32889 ft 395 kts 27°
2026-04-24 13:50 54.11482 22.83189 32903 ft 395 kts 27°
2026-04-24 13:50 54.16024 22.88485 32885 ft 396 kts 28°
2026-04-24 13:51 54.20557 22.93819 32883 ft 395 kts 28°
2026-04-24 13:51 54.25087 22.99142 32875 ft 395 kts 28°
2026-04-24 13:52 54.29617 23.04462 32873 ft 394 kts 26°
2026-04-24 13:52 54.32059 23.06366 32887 ft 381 kts
2026-04-24 13:52 54.34637 23.07347 32919 ft 379 kts
2026-04-24 13:53 54.39877 23.08847 32877 ft 384 kts
2026-04-24 13:53 54.45151 23.10305 32867 ft 383 kts
2026-04-24 13:54 54.50405 23.11831 32860 ft 383 kts
2026-04-24 13:54 54.55631 23.13429 32858 ft 380 kts
2026-04-24 13:55 54.60837 23.15032 32880 ft 379 kts
2026-04-24 13:55 54.66068 23.16625 32869 ft 384 kts
2026-04-24 13:56 54.71305 23.18243 32859 ft 385 kts
2026-04-24 13:56 54.76570 23.19883 32853 ft 384 kts
2026-04-24 13:57 54.81835 23.21522 32848 ft 384 kts
2026-04-24 13:57 54.87089 23.23152 32866 ft 384 kts
2026-04-24 13:58 54.92339 23.24768 32855 ft 387 kts
2026-04-24 13:58 54.97637 23.26420 32853 ft 387 kts
2026-04-24 13:59 55.02930 23.28077 32838 ft 386 kts
2026-04-24 13:59 55.08223 23.29735 32845 ft 386 kts
2026-04-24 14:00 55.13513 23.31393 32863 ft 386 kts
2026-04-24 14:00 55.18813 23.33048 32847 ft 387 kts
2026-04-24 14:01 55.24120 23.34719 32836 ft 387 kts
2026-04-24 14:01 55.29427 23.36400 32839 ft 387 kts
2026-04-24 14:02 55.34734 23.38087 32836 ft 388 kts
2026-04-24 14:02 55.40040 23.39777 32855 ft 388 kts
2026-04-24 14:03 55.44452 23.41192 32838 ft 388 kts
2026-04-24 14:03 55.49738 23.43099 32817 ft 387 kts
2026-04-24 14:04 55.55013 23.45078 32828 ft 388 kts
2026-04-24 14:04 55.60299 23.47023 32832 ft 388 kts
2026-04-24 14:05 55.65593 23.48947 32851 ft 388 kts
2026-04-24 14:05 55.70907 23.50877 32831 ft 390 kts
2026-04-24 14:06 55.76233 23.52821 32828 ft 390 kts
2026-04-24 14:06 55.81512 23.54759 32827 ft 390 kts
2026-04-24 14:07 55.86824 23.56718 32823 ft 390 kts
2026-04-24 14:07 55.92134 23.58693 32848 ft 390 kts
2026-04-24 14:08 55.97442 23.60665 32824 ft 389 kts
2026-04-24 14:08 56.02739 23.62633 32813 ft 388 kts
2026-04-24 14:09 56.08031 23.64602 32818 ft 388 kts
2026-04-24 14:09 56.13321 23.66576 32809 ft 389 kts
2026-04-24 14:10 56.18620 23.68560 32824 ft 389 kts
2026-04-24 14:10 56.23917 23.70552 32817 ft 388 kts
2026-04-24 14:11 56.29185 23.72535 32816 ft 386 kts
2026-04-24 14:12 56.37074 23.75504 32817 ft 386 kts
2026-04-24 14:12 56.42349 23.77399 32821 ft 387 kts
2026-04-24 14:13 56.47638 23.79189 32818 ft 387 kts
2026-04-24 14:13 56.52934 23.80978 32825 ft 387 kts
2026-04-24 14:14 56.58191 23.82775 32820 ft 387 kts
2026-04-24 14:14 56.66202 23.85537 32827 ft 394 kts
2026-04-24 14:15 56.71580 23.87408 32836 ft 393 kts
2026-04-24 14:15 56.76941 23.89278 32839 ft 390 kts
2026-04-24 14:16 56.82254 23.91140 32836 ft 388 kts
2026-04-24 14:17 56.90208 23.93933 32839 ft 389 kts
2026-04-24 14:17 56.98158 23.96724 32831 ft 390 kts
2026-04-24 14:18 57.03484 23.98601 32839 ft 389 kts
2026-04-24 14:18 57.08789 24.00480 32826 ft 387 kts
2026-04-24 14:19 57.14072 24.02352 32825 ft 387 kts
2026-04-24 14:19 57.19359 24.04231 32821 ft 387 kts
2026-04-24 14:20 57.24660 24.06134 32821 ft 388 kts
2026-04-24 14:20 57.29966 24.08045 32837 ft 388 kts
2026-04-24 14:21 57.35248 24.09947 32823 ft 386 kts
2026-04-24 14:21 57.40508 24.11835 32815 ft 385 kts
2026-04-24 14:22 57.45761 24.13727 32815 ft 385 kts
2026-04-24 14:23 57.53665 24.16587 32818 ft 386 kts
2026-04-24 14:23 57.58905 24.18497 32827 ft 386 kts
2026-04-24 14:24 57.64162 24.20406 32808 ft 384 kts
2026-04-24 14:24 57.69397 24.22303 32807 ft 383 kts
2026-04-24 14:25 57.74628 24.24217 32795 ft 383 kts
2026-04-24 14:25 57.79879 24.26155 32797 ft 384 kts
2026-04-24 14:26 57.85128 24.28100 32817 ft 385 kts
2026-04-24 14:26 57.90358 24.30046 32797 ft 382 kts
2026-04-24 14:27 57.95566 24.31915 32787 ft 380 kts
2026-04-24 14:27 58.00771 24.33693 32786 ft 381 kts
2026-04-24 14:28 58.05957 24.35449 32778 ft 381 kts
2026-04-24 14:28 58.11184 24.37234 32780 ft 382 kts
2026-04-24 14:29 58.16405 24.39039 32790 ft 380 kts
2026-04-24 14:29 58.21585 24.40834 32769 ft 378 kts
2026-04-24 14:30 58.25878 24.42322 32778 ft 377 kts
2026-04-24 14:30 58.31929 24.44426 32776 ft 378 kts
2026-04-24 14:31 58.37113 24.46249 32785 ft 379 kts
2026-04-24 14:31 58.42302 24.48082 32792 ft 378 kts
2026-04-24 14:32 58.47449 24.49900 32788 ft 375 kts
2026-04-24 14:32 58.52538 24.51689 32780 ft 374 kts
2026-04-24 14:33 58.57667 24.53495 32775 ft 375 kts
2026-04-24 14:33 58.62801 24.55314 32775 ft 376 kts
2026-04-24 14:34 58.67972 24.57149 32764 ft 381 kts
2026-04-24 14:34 58.73194 24.59025 32779 ft 381 kts
2026-04-24 14:35 58.78384 24.60906 32760 ft 378 kts
2026-04-24 14:35 58.83555 24.62765 32761 ft 378 kts
2026-04-24 14:36 58.88729 24.64618 32758 ft 378 kts
2026-04-24 14:36 58.93926 24.66488 32492 ft 384 kts
2026-04-24 14:36 58.96550 24.67446 32243 ft 382 kts
2026-04-24 14:37 58.99138 24.68395 32002 ft 375 kts
2026-04-24 14:37 59.01682 24.69329 31737 ft 370 kts
2026-04-24 14:37 59.04197 24.70246 31476 ft 366 kts
2026-04-24 14:37 59.06696 24.71153 31228 ft 365 kts
2026-04-24 14:38 59.09189 24.72056 30967 ft 364 kts
2026-04-24 14:38 59.11672 24.72958 30721 ft 363 kts
2026-04-24 14:38 59.14120 24.73848 30478 ft 362 kts
2026-04-24 14:38 59.16599 24.74752 30233 ft 362 kts
2026-04-24 14:39 59.19069 24.75656 29990 ft 361 kts
2026-04-24 14:39 59.21530 24.76560 29731 ft 360 kts
2026-04-24 14:39 59.23986 24.77464 29446 ft 358 kts
2026-04-24 14:39 59.26426 24.78365 29158 ft 356 kts
2026-04-24 14:40 59.28852 24.79264 28886 ft 354 kts
2026-04-24 14:40 59.31260 24.80156 28607 ft 352 kts
2026-04-24 14:40 59.33658 24.81045 28336 ft 350 kts
2026-04-24 14:40 59.36044 24.81930 28060 ft 348 kts
2026-04-24 14:41 59.38415 24.82811 27790 ft 346 kts
2026-04-24 14:41 59.40776 24.83699 27524 ft 345 kts
2026-04-24 14:41 59.43073 24.85144 27262 ft 349 kts 15°
2026-04-24 14:41 59.45311 24.87007 26997 ft 349 kts 17°
2026-04-24 14:42 59.46781 24.88288 26832 ft 349 kts 17°
2026-04-24 14:42 59.49737 24.90873 26488 ft 346 kts 17°
2026-04-24 14:42 59.51939 24.92784 26231 ft 345 kts 17°
2026-04-24 14:42 59.54132 24.94674 26011 ft 343 kts 16°
2026-04-24 14:43 59.56284 24.96512 25762 ft 340 kts 15°
2026-04-24 14:43 59.58452 24.98332 25510 ft 338 kts 15°
2026-04-24 14:43 59.60613 25.00128 25261 ft 336 kts 15°
2026-04-24 14:43 59.62766 25.01912 25015 ft 335 kts 15°
2026-04-24 14:44 59.64911 25.03689 24773 ft 334 kts 15°
2026-04-24 14:44 59.67020 25.05439 24535 ft 332 kts 15°
2026-04-24 14:44 59.69147 25.07210 24296 ft 331 kts 15°
2026-04-24 14:44 59.71267 25.08981 24059 ft 330 kts 15°
2026-04-24 14:45 59.73379 25.10751 23824 ft 329 kts 15°
2026-04-24 14:45 59.75480 25.12516 23595 ft 327 kts 15°
2026-04-24 14:45 59.77572 25.14277 23369 ft 326 kts 15°
2026-04-24 14:45 59.79657 25.16033 23089 ft 325 kts 15°
2026-04-24 14:46 59.81735 25.17787 22862 ft 323 kts 15°
2026-04-24 14:46 59.83799 25.19539 22587 ft 321 kts 15°
2026-04-24 14:46 59.85844 25.21286 22314 ft 319 kts 15°
2026-04-24 14:46 59.87875 25.23022 22045 ft 317 kts 15°
2026-04-24 14:47 59.89214 25.24163 21863 ft 316 kts 14°
2026-04-24 14:47 59.91983 25.25194 21519 ft 297 kts 352°
2026-04-24 14:47 59.94007 25.24928 21273 ft 295 kts 350°
2026-04-24 14:47 59.96049 25.24582 20996 ft 294 kts 350°
2026-04-24 14:48 59.98090 25.24230 20746 ft 295 kts 350°
2026-04-24 14:48 60.00127 25.23865 20488 ft 293 kts 350°
2026-04-24 14:48 60.02155 25.23506 20231 ft 292 kts 350°
2026-04-24 14:48 60.04175 25.23167 19976 ft 291 kts 350°
2026-04-24 14:49 60.06189 25.22850 19721 ft 290 kts 351°
2026-04-24 14:49 60.08196 25.22550 19469 ft 288 kts 351°
2026-04-24 14:49 60.10194 25.22263 19223 ft 287 kts 351°
2026-04-24 14:49 60.12183 25.21983 19001 ft 286 kts 351°
2026-04-24 14:50 60.14162 25.21710 18762 ft 284 kts 351°
2026-04-24 14:50 60.16102 25.21443 18520 ft 282 kts 351°
2026-04-24 14:50 60.18059 25.21173 18281 ft 281 kts 351°
2026-04-24 14:50 60.20010 25.20902 18045 ft 280 kts 351°
2026-04-24 14:51 60.21951 25.20631 17777 ft 279 kts 351°
2026-04-24 14:51 60.23885 25.20360 17503 ft 278 kts 351°
2026-04-24 14:51 60.25812 25.20086 17233 ft 277 kts 351°
2026-04-24 14:51 60.27732 25.19811 16965 ft 276 kts 351°
2026-04-24 14:52 60.29646 25.19540 16695 ft 276 kts 353°
2026-04-24 14:52 60.30948 25.19690 16514 ft 282 kts
2026-04-24 14:52 60.32714 25.21516 16274 ft 294 kts 33°
2026-04-24 14:52 60.34133 25.24501 16011 ft 294 kts 39°
2026-04-24 14:53 60.35500 25.27635 15382 ft 301 kts 40°
2026-04-24 14:53 60.36888 25.30849 14792 ft 306 kts 40°
2026-04-24 14:53 60.38221 25.34281 14183 ft 316 kts 47°
2026-04-24 14:53 60.39440 25.38031 13596 ft 322 kts 50°
2026-04-24 14:54 60.40638 25.41875 12965 ft 325 kts 50°
2026-04-24 14:54 60.41849 25.45764 12303 ft 327 kts 51°
2026-04-24 14:54 60.43070 25.49671 11648 ft 329 kts 51°
2026-04-24 14:54 60.44288 25.53541 11019 ft 331 kts 51°
2026-04-24 14:55 60.45521 25.57424 10362 ft 320 kts 51°
2026-04-24 14:55 60.46695 25.61118 9725 ft 304 kts 51°
2026-04-24 14:55 60.47820 25.64640 9029 ft 291 kts 50°
2026-04-24 14:55 60.49059 25.67731 8334 ft 274 kts 34°
2026-04-24 14:56 60.50696 25.69211 7676 ft 252 kts 358°
2026-04-24 14:56 60.52297 25.68252 7057 ft 241 kts 320°
2026-04-24 14:56 60.53127 25.65438 6701 ft 235 kts 279°
2026-04-24 14:56 60.52906 25.62114 6632 ft 243 kts 257°
2026-04-24 14:57 60.52478 25.58766 6624 ft 248 kts 261°
2026-04-24 14:57 60.52130 25.55343 6449 ft 247 kts 262°
2026-04-24 14:57 60.51777 25.51944 6253 ft 245 kts 261°
2026-04-24 14:57 60.51246 25.48676 6041 ft 245 kts 249°
2026-04-24 14:58 60.50541 25.45528 5822 ft 245 kts 250°
2026-04-24 14:58 60.49859 25.42382 5613 ft 243 kts 251°
2026-04-24 14:58 60.49192 25.39252 5402 ft 241 kts 250°
2026-04-24 14:58 60.48528 25.36125 5177 ft 241 kts 251°
2026-04-24 14:59 60.47863 25.32996 4977 ft 241 kts 250°
2026-04-24 14:59 60.47198 25.29883 4772 ft 240 kts 248°
2026-04-24 14:59 60.46250 25.27077 4584 ft 244 kts 234°
2026-04-24 14:59 60.45174 25.24417 4387 ft 244 kts 235°
2026-04-24 15:00 60.44120 25.21747 4193 ft 239 kts 236°
2026-04-24 15:00 60.43103 25.19161 3964 ft 231 kts 235°
2026-04-24 15:00 60.42106 25.16650 3751 ft 227 kts 235°
2026-04-24 15:00 60.41124 25.14179 3554 ft 222 kts 235°
2026-04-24 15:01 60.40176 25.11814 3324 ft 210 kts 236°
2026-04-24 15:01 60.39317 25.09529 3130 ft 198 kts 239°
2026-04-24 15:01 60.38562 25.07393 3033 ft 181 kts 239°
2026-04-24 15:01 60.37835 25.05326 2719 ft 180 kts 239°
2026-04-24 15:02 60.37120 25.03283 2489 ft 177 kts 239°
2026-04-24 15:02 60.36380 25.01384 2326 ft 163 kts 235°
2026-04-24 15:02 60.35667 24.99741 2005 ft 151 kts 233°
2026-04-24 15:02 60.34927 24.98191 1441 ft 157 kts 229°
2026-04-24 15:03 60.34159 24.96643 982 ft 151 kts 232°
2026-04-24 15:03 60.33450 24.95136 652 ft 145 kts 233°
2026-04-24 15:03 60.32777 24.93653 314 ft 145 kts 233°
2026-04-24 15:03 60.32137 24.92182 168 ft 130 kts 236°
2026-04-24 15:04 60.31625 24.91103 154 ft 66 kts 216°
2026-04-24 15:04 60.31521 24.90875 151 ft 0 kts 234°